Zurück zum Katalog

STARLINK-35734

AktivKommunikationVLEO
NORAD 66225·PAYLOAD·🇺🇸 United States

Gestartet Oct 28, 2025 von Vandenberg Space Force Base

Loading…

Nächste Überflüge (nächste 24 Stunden)

TLE

AktuellSource: CelesTrak SupGP

Epoche: Sep 14, 2026, 21:14 UTC

1 66225C 25244V   26257.88520833  .00028126  00000+0  83118-3 0  2576
2 66225  53.1588  70.1863 0001245  84.2909 121.0652 15.34369487    10

Verfolge STARLINK-35734 in Echtzeit mit AllMySat

Download on the App Store